Location: Amsterdam
(30.7274°N, 84.4357°W)
Time: 19:43:18
(UTC+00:00)

Altair - Pass Details

Date: 15 August 2024
Orbit: 1501 x 1682 km, 47.2° (Epoch: 07 September)

Event Time Altitude Azimuth Distance (km) Brightness Sun altitude
Rises 18:28:27 0° 279° (W) 4,888 10.3 69.9°
Reaches altitude 10° 18:32:12 10° 290° (WNW) 3,878 9.8 69.4°
Maximum altitude 18:40:40 31° 349° (N) 2,532 8.9 68.3°
Drops below altitude 10° 18:48:54 10° 49° (NE) 3,755 9.4 67.1°
Sets 18:52:29 0° 60° (ENE) 4,713 9.8 66.5°
